www.pogodaiklimat.ru

Погода и климат >> Архив погоды >> Украина >> Винница


АРХИВ ПОГОДЫ в Виннице

Время (UTC), дата Ветер
(напр.,м/с)
 
Видим.   Явления Облачность Т
(С)
Тd
(С)
f
(%)
Тe
(С)
Тes
(С)
Комфортность P
(гПа)
Po
(гПа)
Тmin
(С)
Tmax
(С)
R
(мм)
R24
(мм)
S
(см)
12 15.04 Ю 3 13 км 4/4 1500 м
[Cu hum]
+23.3 +8.8 40 +25 +30 комфорт 1021.1 986.9
15 15.04 ЮЗ 4 13 км 4/0
[Ac trans]
+23.1 +6.8 35 +24 +25 комфорт 1019.2 985.1
18 15.04 Ю 2 13 км 8/0
[Ci sp]
+19.2 +4.5 38 +20 +20 тепло 1020.3 985.6 +24.2
21 15.04 Ю 4 13 км 3/0
[Ci fib]
+15.7 +5.1 49 +15 +15 тепло 1020.5 985.4
00 16.04 Ю 4 13 км 9/0
[Ac trans Ci fib]
+13.5 +7.4 67 +12 +12 тепло 1020.1 984.8
03 16.04 ЮВ 3 13 км 10/4 600 м
[Sc Ac und]
+11.3 +8.2 81 +9 +9 тепло 1019.7 984.2
06 16.04 ЮВ 5 13 км 10/0
[Ac und]
+11.5 +5.9 68 +9 +10 тепло 1019.7 984.2 +9.5
09 16.04 Ю 7 13 км 10/0
[Ac und]
+15.0 +3.6 46 +13 +14 тепло 1019.4 984.3
12 16.04 Ю 8 13 км 9/0
[Ac trans]
+19.0 +2.7 34 +19 +19 тепло 1018.2 983.6
15 16.04 Ю 6 13 км 10/0
[Ac und]
+17.3 +2.9 38 +17 +17 тепло 1017.5 982.7
18 16.04 ЮВ 4 13 км 9/0
[Ac trans Ci fib]
+13.8 +2.1 45 +13 +13 тепло 1017.8 982.6 +19.7
21 16.04 ЮВ 4 13 км 4/0
[Ci fib]
+10.2 +0.6 51 +8 +8 тепло 1018.2 982.5
00 17.04 ЮВ 3 13 км 6/0
[Ac trans Ci fib]
+8.5 +1.7 62 +6 +6 по сезону 1018.4 982.5
03 17.04 Ю 2 13 км 9/0
[Ac trans Ci fib]
+7.4 +2.3 70 +6 +6 по сезону 1018.4 982.4
06 17.04 Ю 3 13 км 9/0
[Ac trans Ci fib]
+8.3 +2.3 66 +6 +9 по сезону 1018.9 983.0 +7.3
09 17.04 Ю 3 13 км слабый ливневой дождь 10/6 540 м
[Cb cap Ac und]
+14.2 +5.0 54 +13 +15 тепло 1018.9 983.7
12 17.04 ЮЗ 3 13 км {ливн. осадки} 10/3 600 м
[Cb cap Ac und]
+16.9 +3.8 42 +17 +19 тепло 1018.7 983.8
15 17.04 Ю 4 13 км 10/3 600 м
[Cb cap Ac und]
+15.3 +5.1 51 +14 +15 тепло 1018.7 983.7
18 17.04 Ю 3 13 км 10/6 630 м
[Sc Ac und]
+15.4 +6.1 54 +15 +15 тепло 1018.9 983.9 +18.2 0.0
21 17.04 ЮЗ 3 13 км 10/3 600 м
[Sc Ac und]
+15.0 +6.5 57 +14 +14 тепло 1020.0 984.9
00 18.04 З 7 13 км 10/3 600 м
[Sc Ac und]
+13.4 +9.5 77 +11 +11 тепло 1021.0 985.7
03 18.04 СЗ 7 13 км 10/6 660 м
[Sc Ac und]
+11.9 +9.5 85 +9 +9 тепло 1023.0 987.4
06 18.04 С 7 13 км 4/3 600 м
[Sc Ci fib]
+12.4 +8.0 75 +10 +10 тепло 1024.7 989.1 +11.8
09 18.04 СЗ 6 13 км 4/0
[Ci fib]
+15.9 +2.3 40 +15 +20 тепло 1024.8 989.6
12 18.04 СЗ 7 13 км 6/4 1000 м
[Cu hum Ac trans]
+18.5 +3.6 37 +18 +19 тепло 1023.1 988.3
15 18.04 СЗ 7 13 км 6/3 1000 м
[Sc Ci fib]
+17.6 +3.0 38 +17 +17 тепло 1022.3 987.4
18 18.04 СЗ 4 13 км ясно +13.0 +2.5 49 +12 +12 тепло 1023.1 987.6 +19.7
21 18.04 СЗ 4 13 км ясно +9.8 +1.7 57 +7 +7 по сезону 1023.4 987.5
00 19.04 СЗ 5 13 км ясно +9.1 +3.8 69 +6 +6 по сезону 1023.0 987.0
03 19.04 СЗ 7 13 км 8/3 600 м
[Sc Ac trans]
+10.0 +4.5 69 +6 +6 по сезону 1021.1 985.3
06 19.04 СЗ 8 13 км 8/4 600 м
[Sc Ac trans]
+12.1 +5.5 64 +9 +9 тепло 1019.3 983.9 +9.0
09 19.04 СЗ 11 13 км 8/4 1000 м
[Cu hum Ci fib]
+16.0 +5.6 50 +14 +14 тепло 1017.5 982.6
12 19.04 СЗ 13-18
{19}
13 км 8/8 1500 м
[Cu hum]
+18.0 +3.8 39 +17 +17 тепло 1015.3 980.7
15 19.04 СЗ 12 13 км 6/6 1200 м
[Cu med, cong]
+17.2 +2.1 36 +16 +16 тепло 1014.4 979.7
18 19.04 С 6
{19}
7000 м слабый ливневой дождь 10/6 450 м
[Cb cap Ac und]
+9.4 +7.7 89 +6 +6 по сезону 1016.9 981.2 +19.0 2
21 19.04 СЗ 6 13 км {ливн. осадки} 6/4 600 м
[Sc Ac trans]
+9.2 +5.8 79 +6 +6 по сезону 1017.5 981.7
00 20.04 СЗ 7 13 км {ливн. осадки} 9/4 600 м
[Sc Ac trans]
+7.6 +5.3 85 +3 +3 по сезону 1019.0 983.0
03 20.04 СЗ 5 13 км 9/4 600 м
[Sc Ac trans]
+6.5 +3.9 83 +2 +2 по сезону 1020.2 984.0
06 20.04 С 6 13 км 3/3 300 м
[St]
+8.3 +4.5 77 +4 +6 по сезону 1021.3 985.3 +5.9
09 20.04 С 7 13 км 4/4 600 м
[Sc]
+12.6 +5.0 60 +10 +12 тепло 1020.9 985.5
12 20.04 С 8 13 км 6/6 870 м
[Sc]
+15.2 +1.3 39 +13 +14 тепло 1020.6 985.5
15 20.04 С 5 13 км 8/6 900 м
[Sc Ci fib]
+16.4 +0.4 34 +16 +16 тепло 1020.2 985.2
18 20.04 СЗ 4 13 км 5/3 600 м
[Sc Ci fib]
+12.0 +2.9 54 +10 +10 тепло 1021.3 985.8 +17.6
21 20.04 З 4 13 км ясно +9.7 +2.5 61 +7 +7 по сезону 1021.8 985.9
00 21.04 З 3 13 км ясно +8.5 +2.5 66 +6 +6 по сезону 1021.4 985.4
03 21.04 ЮЗ 3 13 км ясно +6.1 +3.5 83 +3 +3 по сезону 1020.6 984.3
06 21.04 З 4 13 км ясно +10.9 +4.5 65 +9 +12 тепло 1018.8 983.2 +5.8
09 21.04 З 7 13 км 3/0
[Ci fib]
+18.0 +3.8 39 +17 +21 тепло 1016.0 981.4
12 21.04 З 8 13 км 3/0
[Ci fib]
+21.6 +1.1 26 +21 +23 комфорт 1012.1 978.0
15 21.04 З 7 13 км 4/3 1500 м
[Sc Ci fib]
+23.9 +1.3 23 +23 +23 комфорт 1007.9 974.2
18 21.04 СЗ 6 13 км 3/0
[Ci fib]
+21.3 +6.1 37 +22 +22 комфорт 1007.8 973.8 +24.5
21 21.04 СЗ 6 13 км ясно +17.6 +5.1 44 +17 +17 тепло 1009.1 974.7
00 22.04 СЗ 6 13 км ясно +13.4 -0.5 38 +12 +12 тепло 1011.4 976.3
03 22.04 СЗ 4 13 км ясно +8.8 +0.2 55 +6 +6 по сезону 1013.3 977.6
06 22.04 СЗ 5 13 км ясно +11.8 +1.7 50 +10 +12 тепло 1013.9 978.6 +8.0
09 22.04 З 8 13 км 3/3 1500 м
[Cu hum]
+15.5 +1.9 40 +14 +16 тепло 1013.2 978.3

 

Местоположение метеостанции Винница (Винницкая область, Украина): широта 49.23 долгота 28.60 высота над уровнем моря 298 м.

В архиве по умолчанию представлена погода в Виннице за последнюю неделю. Архивные данные за месяц целиком и за предыдущие месяцы, начиная с января 2011 года, Вы можете получить, выбрав интересующий диапазон дат из раскрывающегося списка и нажав кнопку "Ввод!".


*Определитесь, кто Вы:
робот инопланетянин человек

Внимание! Время в таблицах - всемирное. Для получения местного времени необходимо прибавить поправку, которая в Виннице равна 2 ч.

Смотрите также архив погоды в соседних городах и на ближайших метеорологических станциях:

Погода в Жмеринке (Винницкая область, Украина) (42 км)
Погода в Белополе (Винницкая область, Украина) (70 км)
Погода в Гайсине (Винницкая область, Украина) (75 км)
Погода в Хмельнике (Винницкая область, Украина) (76 км)
Погода в Могилев-Подольском (Винницкая область, Украина) (105 км)
Погода в Новой Ушице (Хмельницкая область, Украина) (106 км)
Погода в Жашкове (Черкасская область, Украина) (109 км)
Погода в Житомире (Житомирская область, Украина) (112 км)
Погода в Новоднестровске (Черновицкая область, Украина) (112 км)
Погода в Сороках (Молдова) (117 км)

Пояснения к столбцам:

Ветер - указаны скорость ветра в м/с - средняя за 10 мин, порывы в срок и между сроками (в фигурных скобках) и направление, откуда дует ветер: С - северный, СВ - северо-восточный, В - восточный, ЮВ - юго-восточный, Ю - южный, ЮЗ - юго-западный, З - западный, СЗ - северо-западный.
Видимость - горизонтальная дальность видимости в метрах или километрах. При видимости от 1 до 10 км при отсутствии осадков обычно наблюдается дымка, при ухудшении видимости до 1 км и менее - туман. В сухую погоду видимость может ухудшаться дымом, пылью или мглою.
Явления - указаны атмосферные явления, наблюдавшиеся в срок или в последний час перед сроком; фигурными скобками обозначены явления, наблюдавшиеся между сроками (за 1-3 часа до срока); квадратными скобками обозначены град или гололедные отложения с указанием их диаметра в мм.
Облачность - указаны через наклонную черту общая и нижняя облачность в баллах и высота нижней границы облаков в метрах; квадратными скобками обозначены формы облаков: Ci - перистые, Cs - перисто-слоистые, Cc - перисто-кучевые, Ac - высококучевые, As - высокослоистые, Sc - слоисто-кучевые, Ns - слоисто-дождевые, Cu - кучевые, Cb - кучево-дождевые. Подробнее классификацию облаков см. в Атласе облаков (PDF).
T - Температура воздуха - температура, измеренная на высоте 2 м над землей.
Td - Температура точки росы - температура, при понижении до которой содержащийся в воздухе водяной пар достигнет насыщения.
f - Относительная влажность воздуха - влажноcть воздуха, измеренная на высоте 2 м над землей.
Te - Эффективная температура - температура, которую ощущает одетый по сезону человек в тени. Характеристика душности погоды. При расчете учитывается влияние влажности воздуха и скорости ветра на теплоощущения человека.
Tes - Эффективная температура на солнце - температура, которую ощущает человек, с поправкой на солнечный нагрев. Характеристика знойности погоды. Зависит от высоты солнца над горизонтом, облачности и скорости ветра. Ночью, в пасмурную погоду, а также при ветре 12 м/с и более поправка равна нулю.
P - Атмосферное давление - приведенное к уровню моря атмосферное давление.
Po - Атмосферное давление - измеренное на уровне метеостанции атмосферное давление.
Tmin - Минимальная температура - минимум температуры воздуха на высоте 2 м над землей.
Tmax - Максимальная температура - максимум температуры воздуха на высоте 2 м над землей.
R - Количество осадков - Количество выпавших осадков за период времени, мм. При наведении курсора мыши на число - период времени, за который выпало указанное количество осадков.
R24 - Количество осадков - Количество выпавших осадков за 24 часа, мм.
S - Снежный покров - Высота снежного покрова, см. При наведении курсора мыши на число - состояние снежного покрова и степень покрытия местности в баллах.